[[{"header":{"parameterUnit":"m.s-1","parameterCategory":1,"la1":30.2992,"la2":30.254,"lo1":-89.0895,"lo2":-89.0443,"dy":0.0025,"dx":0.0025,"nx":19,"ny":19,"refTime":"2026-03-29T09:00:00:Z","depth":0,"parameterNumber":2,"parameterNumberName":"U-component_of_WINDS"},"data":[0,0,0,-2.3835,-2.3837,-2.391,-2.391,-2.4035,-2.4037,0,0,0,0,0,0,0,0,0,0,0,-2.3832,-2.3834,-2.3835,-2.3837,-2.391,-2.391,-2.4035,-2.4037,0,0,0,0,0,0,0,0,0,0,0,-2.3832,-2.3833,-2.3835,-2.3838,-2.391,-2.391,-2.4035,-2.3969,0,0,0,0,0,0,0,0,0,0,-2.3892,-2.3908,-2.3833,-2.3835,-2.3838,-2.391,-2.391,-2.3965,-2.3973,-2.4016,0,-2.4058,0,-2.405,-2.4047,-2.4048,0,0,0,-2.3824,-2.3902,-2.3904,-2.3836,-2.3839,-2.391,-2.3873,-2.3969,-2.3978,-2.4026,-2.406,-2.4064,-2.4052,-2.4048,-2.4049,-2.4341,-2.4343,0,0,-2.382,-2.3856,-2.3898,-2.3911,-2.3901,-2.3871,-2.3876,-2.3974,-2.4013,-2.406,-2.4066,-2.4054,-2.4049,-2.405,-2.4339,-2.4341,0,0,0,-2.3817,-2.3854,-2.3853,-2.3906,-2.3917,-2.3874,-2.3879,-2.4009,-2.4005,-2.4067,-2.4055,-2.405,-2.4052,-2.4337,-2.434,-2.4476,0,0,0,-2.3814,-2.3852,-2.3852,-2.3875,-2.3916,-2.3964,-2.3913,-2.3999,-2.4008,-2.4055,-2.405,-2.4053,-2.4334,-2.4338,-2.4467,-2.4536,0,0,0,-2.3821,-2.3853,-2.387,-2.3877,-2.3909,-2.3961,-2.3963,-2.4,-2.4002,-2.4048,-2.4054,-2.4333,-2.4338,-2.446,-2.4523,-2.4625,0,0,0,-2.3839,-2.399,-2.3872,-2.4035,-2.3909,-2.4044,-2.3962,-2.4061,-2.4116,-2.4051,-2.4335,-2.434,-2.4457,-2.4515,-2.4617,-2.4719,-2.4764,0,0,-2.4049,-2.4016,-2.4109,-2.4006,-2.4172,-2.403,-2.4215,-2.4231,-2.4202,-2.4296,-2.4303,-2.447,-2.4522,-2.4623,-2.5,-2.5036,0,0,0,-2.4188,-2.4256,-2.4291,-2.4345,-2.436,-2.4379,-2.4362,-2.4368,-2.4446,-2.4258,-2.4532,-2.4561,-2.4619,-2.4667,-2.4697,-2.4746,-2.4362,-2.4362,-2.4361,-2.454,-2.4493,-2.4644,-2.4607,-2.466,-2.4641,-2.468,-2.4684,-2.4622,-2.4688,-2.4717,-2.4951,-2.5008,-2.503,-2.5081,-2.4764,-2.4765,-2.4765,-2.4765,-2.4846,-2.4935,-2.4847,-2.4963,-2.4913,-2.5009,-2.4996,-2.4948,-2.5032,-2.4925,-2.4974,-2.4865,-2.5072,-2.5114,-2.4775,-2.4773,-2.4772,-2.4771,-2.4771,-2.5074,-2.5109,-2.5112,-2.5184,-2.5245,-2.52,-2.5284,-2.5235,-2.5189,-2.5237,-2.5263,-2.5261,-2.5255,-2.5252,-2.5253,-2.5254,-2.5254,-2.5255,-2.5255,-2.5312,-2.531,-2.5387,-2.5414,-2.5441,-2.5472,-2.5452,-2.5478,-2.5494,-2.5452,-2.5452,-2.5385,-2.5099,-2.503,-2.5268,-2.5266,-2.5264,-2.5263,-2.5262,-2.5645,-2.5561,-2.568,-2.5708,-2.5735,-2.5799,-2.5733,-2.579,-2.5804,-2.5847,-2.5768,-2.5564,-2.5527,-2.5502,-2.5445,-2.5776,-2.5776,-2.5776,-2.5776,-2.5841,-2.5815,-2.5925,-2.5973,-2.6013,-2.5965,-2.6102,-2.6087,-2.6059,-2.6065,-2.6008,-2.5927,-2.5904,-2.5881,-2.5848,-2.5794,-2.6206,-2.6207,-2.6207,-2.6044,-2.6021,-2.6147,-2.6117,-2.6134,-2.615,-2.6277,-2.6335,-2.6285,-2.6224,-2.6069,-2.6051,-2.5918,-2.5877,-2.5817,-2.5767,-2.5667,0,0]},{"header":{"parameterUnit":"m.s-1","parameterCategory":1,"la1":30.2992,"la2":30.254,"lo1":-89.0895,"lo2":-89.0443,"dy":0.0025,"dx":0.0025,"nx":19,"ny":19,"refTime":"2026-03-29T09:00:00:Z","depth":0,"parameterNumber":3,"parameterNumberName":"V-component_of_WINDS"},"data":[0,0,0,-4.4048,-4.4052,-4.4242,-4.4243,-4.4477,-4.4479,0,0,0,0,0,0,0,0,0,0,0,-4.399,-4.3992,-4.4048,-4.4052,-4.4242,-4.4243,-4.4477,-4.4479,0,0,0,0,0,0,0,0,0,0,0,-4.3989,-4.3991,-4.3993,-4.4053,-4.4242,-4.4243,-4.4476,-4.4335,0,0,0,0,0,0,0,0,0,0,-4.4152,-4.4098,-4.3991,-4.3993,-4.4054,-4.4242,-4.4243,-4.4329,-4.4344,-4.4389,0,-4.4431,0,-4.4459,-4.4495,-4.4496,0,0,0,-4.4053,-4.4085,-4.4138,-4.3993,-4.4056,-4.4241,-4.4157,-4.4337,-4.4355,-4.4409,-4.4434,-4.4443,-4.4463,-4.4496,-4.4497,-4.4758,-4.4759,0,0,-4.4042,-4.4023,-4.4126,-4.4149,-4.4123,-4.415,-4.4162,-4.4348,-4.4373,-4.4435,-4.4448,-4.4467,-4.4498,-4.4499,-4.4757,-4.4758,0,0,0,-4.4012,-4.4015,-4.4064,-4.4139,-4.4174,-4.4156,-4.417,-4.4364,-4.4382,-4.4451,-4.4469,-4.4499,-4.4502,-4.4756,-4.4757,-4.4797,0,0,0,-4.4006,-4.3997,-4.4059,-4.4049,-4.4171,-4.4273,-4.4182,-4.4369,-4.4391,-4.4468,-4.4499,-4.4504,-4.4754,-4.4757,-4.4793,-4.4819,0,0,0,-4.3978,-4.3994,-4.4021,-4.4047,-4.4129,-4.427,-4.4298,-4.4374,-4.4402,-4.4496,-4.4505,-4.4754,-4.4756,-4.479,-4.4813,-4.4881,0,0,0,-4.3942,-4.4054,-4.4022,-4.4153,-4.4127,-4.4294,-4.4297,-4.4423,-4.4508,-4.45,-4.4755,-4.4757,-4.4789,-4.481,-4.4877,-4.4933,-4.4955,0,0,-4.4072,-4.4069,-4.4148,-4.4124,-4.4293,-4.4267,-4.444,-4.4536,-4.4561,-4.469,-4.4697,-4.4795,-4.4813,-4.488,-4.5088,-4.5105,0,0,0,-4.4182,-4.4238,-4.4287,-4.4368,-4.4445,-4.4512,-4.4584,-4.4618,-4.4729,-4.4625,-4.4838,-4.485,-4.489,-4.4917,-4.4932,-4.4967,-4.477,-4.4769,-4.4769,-4.4336,-4.4364,-4.4495,-4.4546,-4.4624,-4.4697,-4.4762,-4.4821,-4.4826,-4.4875,-4.4914,-4.5037,-4.5068,-4.508,-4.5115,-4.4947,-4.4947,-4.4947,-4.4947,-4.4527,-4.461,-4.4614,-4.4743,-4.4771,-4.4878,-4.4951,-4.4951,-4.5053,-4.5011,-4.5047,-4.4998,-4.5098,-4.513,-4.495,-4.495,-4.4949,-4.4949,-4.4949,-4.463,-4.4675,-4.4717,-4.4836,-4.4923,-4.497,-4.5068,-4.5089,-4.511,-4.5147,-4.5188,-4.5187,-4.5188,-4.5165,-4.5165,-4.5166,-4.5166,-4.5166,-4.5167,-4.472,-4.4766,-4.4847,-4.4938,-4.4991,-4.5065,-4.5137,-4.519,-4.5253,-4.5261,-4.5261,-4.5259,-4.5104,-4.5063,-4.5173,-4.5172,-4.5171,-4.5171,-4.517,-4.4901,-4.4864,-4.4989,-4.5043,-4.5149,-4.5234,-4.526,-4.5365,-4.5412,-4.5458,-4.5449,-4.5331,-4.5328,-4.5317,-4.5283,-4.5444,-4.5444,-4.5444,-4.5444,-4.4987,-4.4989,-4.5121,-4.5206,-4.5291,-4.5327,-4.5464,-4.552,-4.5572,-4.5601,-4.5581,-4.5539,-4.5526,-4.5531,-4.5515,-4.5484,-4.5692,-4.5693,-4.5693,-4.5099,-4.511,-4.5224,-4.5276,-4.5361,-4.5431,-4.556,-4.5654,-4.5704,-4.5703,-4.5624,-4.5614,-4.5546,-4.5523,-4.5519,-4.5494,-4.5437,0,0]}]]